Regional Weather Roundup
Issued by NWS Upton, NY

Current Version | Previous Version | Text Only | Print | Product List | Glossary On
Versions: 1 2 3 4 5 6 7 8 9 10 11 12 13 14 15 16 17 18 19 20 21 22 23 24 25 26 27
000 ASUS41 KOKX 201208 RWROKX Regional Weather Roundup National Weather Service New York NY 700 AM EST SAT JAN 20 2018 Note: "FAIR" indicates few or no clouds below 12,000 feet with no significant weather and/or obstructions to visibility. NYZ071-072-176-178-NJZ106-104-201300- New York City Metro Area CITY SKY/WX TMP DP RH WIND PRES REMARKS Central Park FAIR 40 20 44 W14G26 29.88F WCI 32 Bronx Bot Gard N/A 39 21 48 S6 29.87R WCI 35 Bronx Lehman C N/A 39 23 52 SW12 N/A WCI 32 LaGuardia Arpt FAIR 40 20 44 SW14 29.86F WCI 32 Queens College N/A 39 23 52 SW12 N/A WCI 32 Kennedy Intl MOCLDY 35 25 66 SW17 29.89F WCI 25 Breezy Point N/A 37 N/A N/A W12 N/A WCI 30 Brooklyn Coll N/A 37 23 56 SW9 N/A WCI 31 Staten Island N/A 37 21 52 SW10 N/A WCI 30 Newark/Liberty MOCLDY 35 21 56 SW8 29.88S WCI 29 Teterboro FAIR 33 21 61 S8 29.86F WCI 26 $$ NYZ177-179-078>081-201300- Long Island New York CITY SKY/WX TMP DP RH WIND PRES REMARKS Jones Beach N/A 37 N/A N/A SW13G18 N/A WCI 29 Wantagh N/A 37 27 65 SW10 N/A WCI 30 Matinecock Pt N/A 39 N/A N/A SW20 N/A WCI 30 Farmingdale FAIR 35 24 64 SW12 29.87F WCI 27 MacArthur/ISP MOCLDY 37 25 61 SW13 29.84F WCI 29 Shirley FAIR 37 26 64 SW13G22 29.85F WCI 29 Mt Sinai Harb N/A N/A N/A N/A SW10G18 N/A Westhampton FAIR 36 25 64 SW12 29.86F WCI 28 East Hampton FAIR 37 26 64 SW12G18 29.83F WCI 29 Southold N/A 39 25 56 SW13 N/A WCI 32 Montauk N/A 40 27 59 SW12G26 29.83F WCI 33 $$ NYZ052-065-067-201300- Hudson Valley CITY SKY/WX TMP DP RH WIND PRES REMARKS White Plains FAIR 36 20 52 W8 29.83R WCI 30 Larchmont Harb N/A 39 N/A N/A SW20 N/A WCI 30 Croton On Huds N/A 36 N/A N/A S8 N/A WCI 29 Somers N/A 30 21 69 W3 N/A Brewster N/A 27 21 80 CALM N/A Newburgh PTCLDY 34 23 64 W6 29.82R WCI 29 Montgomery FAIR 28 19 69 SW7 29.80R WCI 21 Otisville N/A 32 23 69 SW6 N/A WCI 26 Warwick N/A 39 25 56 W12 N/A WCI 32 Suffern N/A 36 23 60 SW6 N/A WCI 31 Poughkeepsie FAIR 34 20 56 SW7 29.81R WCI 28 Albany MOCLDY 31 20 63 S8 29.75R WCI 23 $$ NJZ001-105-106-008-010-013-015-019>022-104-201300- New Jersey CITY SKY/WX TMP DP RH WIND PRES REMARKS Newark/Liberty MOCLDY 35 21 56 SW8 29.88S WCI 29 Teterboro FAIR 33 21 61 S8 29.86F WCI 26 Caldwell FAIR 35 20 54 SW6 29.87S WCI 30 Somerville FAIR 29 21 72 CALM 29.88S Linden FAIR 37 20 51 CALM 29.89F Perth Amboy N/A 37 N/A N/A W13 N/A WCI 29 Sussex FAIR 29 20 69 SW5 29.83S WCI 24 Andover N/A 34 21 59 S7 29.85S WCI 28 Trenton FAIR 34 20 56 SW5 29.91S WCI 30 Millville FAIR 23 18 81 SW3 29.97S Atlantic City FAIR 32 19 58 SW6 29.96S WCI 26 Wrightstown FAIR 35 21 56 W6 29.90S WCI 30 Toms River NOT AVBL Belmar FAIR 36 20 52 SW13 29.92F WCI 27 $$ PAZ047>061-062-071-201300- Eastern Pennsylvania CITY SKY/WX TMP DP RH WIND PRES REMARKS Philadelphia FAIR 33 21 61 SW12 29.95S WCI 24 Allentown FAIR 28 19 69 SW7 29.89S WCI 21 Scranton FAIR 37 24 59 SW10 29.84S WCI 30 $$ CTZ002-004>006-009-010-012-RIZ004-006-007-MAZ004-011-015-201300- Southern New England In CT CITY SKY/WX TMP DP RH WIND PRES REMARKS Bradley Intl MOCLDY 33 21 61 SW14 29.75S WCI 23 Hartford FAIR 35 22 58 S8 29.78S WCI 29 Danbury FAIR 34 21 59 W6 29.81S WCI 29 Wtrbury/Oxford FAIR 28 20 71 SW5 29.79R WCI 23 Norwalk Harbor N/A 36 N/A N/A SW20 N/A WCI 25 Bridgeport FAIR 36 28 73 SW9 29.83S WCI 29 Meriden FAIR 28 21 75 S7 29.81S WCI 21 New Haven FAIR 36 28 73 SW6 29.83S WCI 31 Chester FAIR 36 23 60 SW12G23 29.79R WCI 27 Groton FAIR 38 26 62 SW14 29.80F WCI 30 Willimantic FAIR 34 22 61 SW8 29.77F WCI 27 In RI CITY SKY/WX TMP DP RH WIND PRES REMARKS Providence MOCLDY 36 24 62 SW13 29.76F WCI 27 Block Island FAIR 39 30 70 SW21G28 29.82F WCI 29 Westerly FAIR 38 27 64 SW15G24 29.81F WCI 29 In MA CITY SKY/WX TMP DP RH WIND PRES REMARKS Boston MOCLDY 34 23 64 SW16 29.70F WCI 24 Worcester FAIR 31 18 58 SW22 29.66F WCI 18 Westfield FAIR 24 20 84 CALM 29.73R Provincetown FAIR 37 30 75 SW21 29.73 WCI 26 Nantucket FAIR 39 37 92 SW16 29.81F WCI 30 $$ ANZ330-335-338-340-345-350-353-355-201300- Coastal Marine Observations STATION/POSITION TIME SKY/WX TEMP WIND PRES VSBY WAVE AIR SEA DIR/SP/G HT/PER (UTC) (F) (DEG/KT/KT) (MB) (MI) (FT/S) NY Harb Entrance 1050 41 41 230/ 16/ 17 1012.2 3/ 6 20 S Fire Island 1050 43 42 260/ 19/ 25 1012.5 4/ 6 15 E Barnegat Li 1130 43 N/A 3/10 Hudson Canyon 1050 47 48 250/ 17/ 21 1014.2 5/ 6 Kings Point 1136 39 31 260/ 14/ 17 1012.0 Execution Rocks NOT AVBL Western LI Sound NOT AVBL Central LI Sound 1130 38 220/ 17/ 21 N/A 2 Robbins Reef 1142 39 230/ 12/ 15 1012.4 $$ >>>>>>>>>>>>>>>>>>>>>>>>>>>> KEY <<<<<<<<<<<<<<<<<<<<<<<<<<< > < > SKY/WX - Sky Condition/Present Weather < > TMP - Temperature in Fahrenheit < > DP - Dew Point in Fahrenheit < > RH - Relative Humidity in Percent < > WIND - Direction (from) and Speed in MPH < > PRES - Mean Sea Level Pressure (inches of Hg) < > WCI - Wind Chill Index < > VSB - Visibility in Miles < > HX - Heat Index < > TC - Temperature in Celsius < > VRB - Varibale Wind Direction < > < >>>>>>>>>>>>>>>>>>>>>>>>>>>> KEY <<<<<<<<<<<<<<<<<<<<<<<<<<<

USA.gov is the U.S. government's official web portal to all federal, state and local government web resources and services.